Regional Weather Roundup
Issued by NWS

Home | Current Version | Previous Version | Graphics & Text | Print | Product List | Glossary On
Versions: 1 2 3 4 5 6 7 8 9 10 11 12 13 14 15 16 17 18 19 20 21 22 23 24 25 26 27 28 29 30 31 32 33 34 35 36 37 38 39 40 41 42 43 44 45 46 47 48 49 50
656
ASUS45 KTFX 230010
RWRMT
MONTANA REGIONAL WEATHER ROUNDUP
NATIONAL WEATHER SERVICE GREAT FALLS MT
600 PM MDT MON MAY 22 2017

NOTE: "FAIR" INDICATES FEW OR NO CLOUDS BELOW 12000 FEET WITH NO
SIGNIFICANT WEATHER AND/OR OBSTRUCTIONS TO VISIBILITY.

MTZ001>007-043-230100-
WEST OF THE DIVIDE

CITY           SKY/WX    TMP DP  RH WIND       PRES   REMARKS
KALISPELL      SUNNY     78  37  22 CALM      30.13F
MISSOULA       SUNNY     77  34  21 N16       30.16F
BUTTE          CLOUDY    66  35  31 E10       30.26S
MULLAN PASS    SUNNY     63  32  31 VRB3      30.30F
ANACONDA         N/A     66  36  32 N6        30.23S
DEER LODGE       N/A     68  37  32 N3        30.25F
EUREKA           N/A     82  37  20 CALM      30.11F
HAMILTON         N/A     75  39  27 N7        30.17F
LIBBY            N/A     81  34  18 SE5       30.10F
PLAINS           N/A     82  43  25 NE2       30.12F
RONAN            N/A     78  40  25 NW7       30.20F
$$

MTZ008-052>055-230100-
SOUTHWEST MONTANA

CITY           SKY/WX    TMP DP  RH WIND       PRES   REMARKS
BOZEMAN        CLOUDY    65  42  43 N7        30.23S
DILLON         CLOUDY    66  35  31 NE17      30.22R
W YELLOWSTONE  CLOUDY    59  28  31 N7G18     30.28S
ENNIS          CLOUDY    64  37  36 N17       30.29S
THREE FORKS      N/A     67  38  34 NE1       30.20R
TWIN BRIDGES     N/A     70  35  27 N14       30.17F
$$

MTZ009-010-012-014-046-048-049-054-230100-
EAST SLOPES AND CENTRAL MONTANA

CITY           SKY/WX    TMP DP  RH WIND       PRES   REMARKS
CUT BANK       SUNNY     73  34  23 N9        30.20S
GREAT FALLS    CLOUDY    70  36  28 NW5       30.20S
HELENA         CLOUDY    70  38  31 N8        30.20F
AUGUSTA          N/A     65  39  37 S5        30.23S
BOWMANS CRNR     N/A     63  38  39 NE6       30.22S
CHOTEAU          N/A     70  41  35 VRB3G12   30.23S
CONRAD           N/A     72  43  35 NW7       30.21S
FAIRFIELD      PTSUNNY   69  34  27 E3        30.20F
POWER          PTSUNNY   69  35  28 N10       30.20S
RAYNESFORD       N/A     65  37  35 NE8       30.21F
ULM            PTSUNNY   68  41  36 SW7       30.21F
$$

MTZ011-013-016-021-045-047-050-051-230100-
NORTH CENTRAL MONTANA

CITY           SKY/WX    TMP DP  RH WIND       PRES   REMARKS
HAVRE          SUNNY     73  27  18 N15       30.16S
LEWISTOWN      SUNNY     66  34  30 N12G23    30.21R
N BAR RANCH      N/A     63  30  29 N18       30.23S
CHINOOK          N/A     72  32  23 N10       30.16S
DENTON           N/A     67  36  31 NW21      30.15S
FORT BENTON      N/A     73  30  20 CALM      30.17S
GEYSER           N/A     67  35  30 N13       30.20F
JUDITH GAP       N/A     62  37  39 N23G32    30.21R
STANFORD         N/A     65  35  32 N15G25    30.22S
WINIFRED         N/A     67  29  23 N16       30.18S
$$

MTZ017>020-022>027-061-062-230100-
NORTHEAST MONTANA

CITY           SKY/WX    TMP DP  RH WIND       PRES   REMARKS
GLASGOW        CLOUDY    66  32  28 N15       30.14R
JORDAN           N/A     67  32  27 N14       30.14S
SIDNEY         CLOUDY    65  35  33 N13       30.07S
WOLF POINT     CLOUDY    69  31  24 N17G25    30.11R
MALTA          MOSUNNY   68  30  24 N14       30.15S
PLENTYWOOD       N/A     64  30  27 N22G28    30.09S
POPLAR           N/A     66  30  26 N15G21    30.11R
SCOBEY           N/A     64  33  31 N13       30.11R
$$

MTZ028>42-056>058-230100-
SOUTHCENTRAL AND SOUTHEAST MONTANA

CITY           SKY/WX    TMP DP  RH WIND       PRES   REMARKS
BAKER          PTSUNNY   60  38  43 N14G24    30.11S
BILLINGS       MOSUNNY   68  33  27 N13       30.17S
LIVINGSTON     SUNNY     64  40  41 W10       30.23F
MILES CITY     CLOUDY    60  38  43 NE12      30.13S
BIG TIMBER     MOSUNNY   61  41  48 W9        30.25S
EKALAKA          N/A     53  37  54 NW10      30.10R
FORSYTH          N/A     64  36  34 N12       30.13S
LAUREL           N/A     65  38  36 W2        30.16F
ROUNDUP          N/A     67  32  27 NW16      30.08S
$$

REGIONAL REPORTS...DAKOTAS

CITY           SKY/WX    TMP DP  RH WIND       PRES   REMARKS
WILLISTON      CLOUDY    66  33  29 N13       30.06S
MINOT          CLOUDY    62  34  35 N17G25    29.98R
DICKINSON      CLOUDY    58  32  37 N15G26    30.03S
BEACH          PTSUNNY   63  34  34 N21G30    30.11F
TIOGA          CLOUDY    63  32  31 N20       30.06S
WATFORD CITY   PTSUNNY   63  36  36 N10       30.05S
BISMARCK       LGT RAIN  59  41  51 NW12G23   29.99S
GRAND FORKS    CLOUDY    52  48  86 N17       29.88R
FARGO          LGT RAIN  52  44  74 N15       29.87F
BUFFALO SD       N/A     60  37  42 N18G26    30.02S
RAPID CITY     PTSUNNY   54  39  57 N18       30.09R
$$

REGIONAL REPORTS...WYOMING/IDAHO/WASHINGTON

CITY           SKY/WX    TMP DP  RH WIND       PRES   REMARKS
GILLETTE       MOSUNNY   52  41  66 NE7       30.16R
SHERIDAN       CLOUDY    58  40  51 NE10      30.18R
BUFFALO WY     LGT RAIN  53  42  66 N14G24    30.20S
CODY           MOSUNNY   57  36  45 NW7       30.25F
YELLOWSTONE LA   N/A     48  34  58 VRB5      30.36R
IDAHO FALLS    MOSUNNY   73  37  27 VRB7G17   30.17S
SALMON         MOSUNNY   72  39  30 N8        30.11F
BOISE          SUNNY     81  38  21 W10       30.10F
SPOKANE        MOSUNNY   81  36  19 NE3       30.14F
$$

REGIONAL REPORTS...ALBERTA

CITY           SKY/WX    TMP DP  RH WIND       PRES   REMARKS
EDMONTON       MOSUNNY   75  39  27 W7        30.05F
CALGARY        PTSUNNY   73  36  25 S3        30.13F
LETHBRIDGE     PTSUNNY   73  37  27 E6        30.15F
MEDICINE HAT   MOSUNNY   72  32  23 N9        30.16S
WATERTON GATE    N/A     72  34  25 E8          N/A
MILK RIVER       N/A     73  34  23 N8          N/A
$$

REGIONAL REPORTS...SASKATCHEWAN

CITY           SKY/WX    TMP DP  RH WIND       PRES   REMARKS
SWIFT CURRENT  MOSUNNY   66  30  26 N10G17    30.17S
REGINA         MOSUNNY   68  28  22 N20G25    30.10R
SASKATOON      PTSUNNY   72  30  21 NE6G18    30.14S
CYPRESS HILLS    N/A     59  28  31 NE6         N/A
VAL MARIE        N/A     66  28  24 NE12G18     N/A
ROCKGLEN         N/A     61  32  33 NE8         N/A
ASSINIBOIA       N/A     77  39  25 S7          N/A
$$




USA.gov is the U.S. government's official web portal to all federal, state and local government web resources and services.